Location: Buckhorn Peak
(37.6641°N, 120.1241°W)
Time: 21:03:12
(UTC+00:00)

Vanguard 1 Rocket - Pass Details

Date: 08 November 2024
Orbit: 650 x 4218 km, 34.3° (Epoch: 02 December)

Event Time Altitude Azimuth Distance (km) Brightness Sun altitude
Rises 03:11:22 0° 280° (W) 4,966 12.4 -27.2°
Reaches altitude 10° 03:15:47 10° 270° (W) 3,404 11.3 -28.1°
Maximum altitude 03:22:04 27° 216° (SW) 1,721 9.0 -29.3°
Enters shadow 03:23:56 23° 185° (S) 1,744 8.8 -29.7°
